PRAETORIAN SDA_621

Last updated on Wed Sep 09 2026 00:03:45 GMT+0000 (Coordinated Universal Time)

1 65584U 25203V 26251.59920029 .00000052 00000+0 36632-4 0 9992 2 65584 81.3004 293.5259 0006620 326.8457 33.2284 13.83808539 50230
UTC large
Height (km)
Speed (km/s)
/
Latitude / Longitude
Inclination (degrees)
Orbital Period (minutes)
Azimuth
Elevation
Range (km)
Doppler Factor

Next 0 passes for location: London (51.5072 / 0.1276)

No passes found over London.
PRAETORIAN SDA_621